Regional Weather Roundup
Issued by NWS State College, PA

Home | Current Version | Previous Version | Graphics & Text | Print | Product List | Glossary Off
Versions: 1 2 3 4 5 6 7 8 9 10 11 12 13 14 15 16 17 18 19 20 21 22 23 24 25 26 27 28 29 30 31 32 33 34 35 36 37 38 39 40 41 42 43 44 45 46 47 48 49 50

000
ASUS41 KCTP 171503
RWRCTP

REGIONAL WEATHER ROUNDUP
NATIONAL WEATHER SERVICE STATE COLLEGE PA
1000 AM EST TUE JAN 17 2017

Note: "fair" indicates few or no clouds below 12,000 feet with no
significant weather and/or obstructions to visibility.

* = STATION THAT DOES NOT REPORT PRECIPITATION /E.G. RAIN...SNOW...ETC/
    THUNDER OR FOG.

PAZ002>004-007>009-013>016-020>023-029>032-171600-
WESTERN PENNSYLVANIA

CITY           SKY/WX    TMP DP  RH WIND       PRES   REMARKS
ERIE           CLOUDY    50  46  86 S17G25    29.86F
MEADVILLE      LGT RAIN  47  45  93 S9        29.88F FOG
FRANKLIN*        N/A     45  43  93 S12       29.94F
NEW CASTLE     CLOUDY    49  49 100 S7        29.91F
BEAVER COUNTY  LGT RAIN  48  48 100 S7        29.92F
BUTLER*        CLOUDY    48  46  93 SE5       29.98S
PITTSBURGH INT CLOUDY    50  50 100 S6        29.93F
PITTSBURGH     LGT RAIN  52  49  89 S13       29.95F
INDIANA*       CLOUDY    50  48  93 SE6       30.00F
LATROBE        CLOUDY    55  54  94 SW12      29.98S
WASHINGTON CO* CLOUDY    55  52  88 S7        29.96F
$$

PAZ004>006-010>012-017>019-024>028-033>037-041-042-045-046-049>053-171600-
CENTRAL PENNSYLVANIA

CITY           SKY/WX    TMP DP  RH WIND       PRES   REMARKS
BRADFORD       LGT RAIN  39  39 100 SE9       29.95F FOG
DUBOIS         FOG       38  36  92 SE10      29.96F VSB 3/4
CLEARFIELD     FOG       34  34 100 NE7       30.03F VSB 1
JOHNSTOWN      LGT RAIN  52  50  93 S15G23    29.98F
ALTOONA        LGT RAIN  37  36  96 CALM      30.05F FOG
STATE COLLEGE  FOG       32  32 100 CALM      30.09F VSB 3/4
WILLIAMSPORT   LGT RAIN  35  31  85 E9        30.12F FOG
SELINSGROVE    LGT RAIN  33  33 100 CALM      30.16S FOG
FT INDIANTOWN  CLOUDY    34  34 100 CALM      30.19S FOG
CAPITAL CITY   CLOUDY    37  30  75 E6        30.18F HAZE
HARRISBURG     CLOUDY    37  33  85 CALM      30.18F FOG
YORK           CLOUDY    38  37  97 CALM      30.17S FOG
$$

PAZ038>040-043-044-047-048-054-055-060>062-067>071-171600-
EASTERN PENNSYLVANIA

CITY           SKY/WX    TMP DP  RH WIND       PRES   REMARKS
SCRANTON       LGT RAIN  35  31  85 CALM      30.13F FOG
MOUNT POCONO   MIX PCPN  32  29  88 E5        30.12F
ALLENTOWN      MIX PCPN  37  31  78 E5        30.20F
QUAKERTOWN*    CLOUDY    36  32  87 E3        30.20S
READING        LGT RAIN  37  29  72 CALM      30.19S
LANCASTER      LGT RAIN  38  35  89 SE5       30.18F FOG
COATESVILLE    CLOUDY    37  34  87 CALM      30.20S FOG
POTTSTOWN      CLOUDY    37  29  72 CALM      30.21F
BLUE BELL      CLOUDY    37  32  81 CALM      30.20S
DOYLESTOWN     CLOUDY    41  30  65 CALM      30.20S
WILLOW GROVE   NOT AVBL
NORTH PHILA    CLOUDY    42  32  67 CALM      30.23F
PHILADELPHIA   CLOUDY    41  35  79 CALM      30.23S
$$




USA.gov is the U.S. government's official web portal to all federal, state and local government web resources and services.